UAL1440 KMCO-KATL

Flight info

Callsign UAL1440
Flight time N/A
Altitude 34000
Route JEEMY4 PAINN SHRKS LAIRI LARZZ JJEDI4
Aircraft B738/M-SDGIJ1LRWY/SB1

Departure

Time 2026-05-03 23:15
Airport Orlando International Airport (KMCO)

Arrival

Time N/A
Airport Hartsfield Jackson Atlanta International Airport (KATL)
Time Latitude Longitude Altitude Speed Heading
2026-05-03 22:39 28.42873 -81.29995 90 ft 0 kts 258°
2026-05-03 22:59 28.42874 -81.29993 90 ft 1 kts 258°
2026-05-03 22:59 28.42877 -81.29977 90 ft 2 kts 258°
2026-05-03 22:59 28.42880 -81.29960 90 ft 2 kts 263°
2026-05-03 22:59 28.42880 -81.29943 90 ft 2 kts 279°
2026-05-03 23:00 28.42876 -81.29927 90 ft 2 kts 293°
2026-05-03 23:00 28.42869 -81.29912 90 ft 2 kts 307°
2026-05-03 23:00 28.42859 -81.29900 90 ft 2 kts 321°
2026-05-03 23:00 28.42846 -81.29890 91 ft 2 kts 334°
2026-05-03 23:01 28.42832 -81.29884 90 ft 2 kts 348°
2026-05-03 23:01 28.42822 -81.29883 90 ft 0 kts 358°
2026-05-03 23:01 28.42816 -81.29883 90 ft 0 kts
2026-05-03 23:06 28.42842 -81.29883 90 ft 9 kts 359°
2026-05-03 23:07 28.42907 -81.29845 91 ft 11 kts 85°
2026-05-03 23:07 28.42849 -81.29800 91 ft 12 kts 174°
2026-05-03 23:07 28.42740 -81.29797 90 ft 19 kts 180°
2026-05-03 23:07 28.42594 -81.29795 90 ft 21 kts 179°
2026-05-03 23:08 28.42450 -81.29793 90 ft 20 kts 179°
2026-05-03 23:08 28.42313 -81.29791 90 ft 19 kts 179°
2026-05-03 23:08 28.42182 -81.29791 90 ft 18 kts 179°
2026-05-03 23:08 28.42057 -81.29790 91 ft 17 kts 180°
2026-05-03 23:09 28.41919 -81.29789 91 ft 20 kts 179°
2026-05-03 23:09 28.41781 -81.29787 92 ft 19 kts 180°
2026-05-03 23:09 28.41646 -81.29786 91 ft 19 kts 179°
2026-05-03 23:09 28.41513 -81.29784 89 ft 19 kts 179°
2026-05-03 23:10 28.41378 -81.29783 88 ft 19 kts 179°
2026-05-03 23:10 28.41247 -81.29781 87 ft 19 kts 179°
2026-05-03 23:10 28.41113 -81.29780 85 ft 18 kts 179°
2026-05-03 23:10 28.40990 -81.29779 84 ft 16 kts 179°
2026-05-03 23:11 28.40889 -81.29778 84 ft 12 kts 180°
2026-05-03 23:11 28.40822 -81.29741 83 ft 11 kts 105°
2026-05-03 23:11 28.40821 -81.29671 83 ft 0 kts 89°
2026-05-03 23:14 28.40821 -81.29637 83 ft 6 kts 90°
2026-05-03 23:14 28.40828 -81.29584 83 ft 8 kts 59°
2026-05-03 23:14 28.40914 -81.29560 85 ft 33 kts
2026-05-03 23:14 28.41397 -81.29562 88 ft 100 kts 359°
2026-05-03 23:15 28.42291 -81.29575 90 ft 154 kts
2026-05-03 23:15 28.43417 -81.29600 504 ft 165 kts
2026-05-03 23:15 28.44588 -81.29633 1096 ft 172 kts
2026-05-03 23:15 28.45739 -81.29319 1642 ft 174 kts 34°
2026-05-03 23:16 28.46745 -81.28520 2074 ft 183 kts 38°
2026-05-03 23:16 28.47868 -81.27696 2389 ft 201 kts 33°
2026-05-03 23:16 28.49157 -81.26961 2764 ft 216 kts 19°
2026-05-03 23:16 28.50709 -81.26939 3160 ft 235 kts 351°
2026-05-03 23:17 28.52305 -81.27503 3689 ft 243 kts 344°
2026-05-03 23:17 28.53914 -81.28068 4325 ft 243 kts 347°
2026-05-03 23:17 28.55570 -81.28543 4953 ft 244 kts 347°
2026-05-03 23:17 28.57223 -81.28968 5538 ft 246 kts 347°
2026-05-03 23:18 28.58899 -81.29398 6130 ft 249 kts 346°
2026-05-03 23:18 28.60571 -81.29836 6703 ft 252 kts 344°
2026-05-03 23:18 28.62292 -81.30290 7314 ft 254 kts 343°
2026-05-03 23:18 28.64034 -81.30751 7947 ft 255 kts 343°
2026-05-03 23:19 28.65760 -81.31207 8555 ft 257 kts 342°
2026-05-03 23:19 28.67492 -81.31664 9173 ft 259 kts 341°
2026-05-03 23:19 28.69243 -81.32127 9786 ft 261 kts 340°
2026-05-03 23:19 28.71016 -81.32596 10392 ft 264 kts 340°
2026-05-03 23:20 28.72837 -81.33080 10943 ft 269 kts 340°
2026-05-03 23:20 28.74654 -81.33563 11521 ft 273 kts 339°
2026-05-03 23:20 28.76531 -81.34060 12122 ft 277 kts 340°
2026-05-03 23:20 28.78428 -81.34561 12711 ft 281 kts 340°
2026-05-03 23:21 28.80345 -81.35068 13334 ft 284 kts 339°
2026-05-03 23:21 28.82279 -81.35580 13910 ft 288 kts 339°
2026-05-03 23:21 28.84232 -81.36096 14575 ft 288 kts 338°
2026-05-03 23:21 28.86185 -81.36616 15120 ft 293 kts 338°
2026-05-03 23:22 28.90204 -81.37688 16282 ft 299 kts 338°
2026-05-03 23:22 28.92250 -81.38229 16824 ft 303 kts 338°
2026-05-03 23:22 28.94315 -81.38775 17412 ft 304 kts 338°
2026-05-03 23:23 28.96383 -81.39324 17916 ft 308 kts 338°
2026-05-03 23:23 28.98482 -81.39879 18483 ft 310 kts 337°
2026-05-03 23:23 29.00583 -81.40440 18957 ft 315 kts 337°
2026-05-03 23:23 29.02715 -81.41008 19513 ft 316 kts 338°
2026-05-03 23:24 29.04859 -81.41576 20049 ft 317 kts 337°
2026-05-03 23:24 29.07032 -81.42155 20539 ft 319 kts 337°
2026-05-03 23:24 29.09198 -81.42718 21042 ft 322 kts 339°
2026-05-03 23:24 29.11460 -81.43138 21444 ft 331 kts 343°
2026-05-03 23:25 29.13759 -81.43399 21872 ft 336 kts 346°
2026-05-03 23:25 29.16096 -81.43599 22362 ft 337 kts 346°
2026-05-03 23:25 29.18457 -81.43786 22861 ft 337 kts 346°
2026-05-03 23:25 29.20814 -81.43984 23200 ft 342 kts 346°
2026-05-03 23:26 29.23213 -81.44193 23675 ft 343 kts 345°
2026-05-03 23:26 29.25588 -81.44411 24042 ft 346 kts 345°
2026-05-03 23:26 29.28007 -81.44637 24452 ft 347 kts 345°
2026-05-03 23:26 29.30438 -81.44868 24754 ft 352 kts 345°
2026-05-03 23:27 29.32849 -81.45094 25229 ft 351 kts 345°
2026-05-03 23:27 29.35339 -81.45332 25430 ft 359 kts 345°
2026-05-03 23:27 29.37824 -81.45570 25869 ft 358 kts 345°
2026-05-03 23:27 29.40279 -81.45798 26333 ft 357 kts 345°
2026-05-03 23:28 29.42782 -81.46036 26550 ft 363 kts 345°
2026-05-03 23:28 29.45329 -81.46280 26918 ft 364 kts 345°
2026-05-03 23:28 29.47861 -81.46521 27271 ft 365 kts 345°
2026-05-03 23:28 29.50394 -81.46766 27447 ft 371 kts 345°
2026-05-03 23:29 29.52964 -81.47012 27903 ft 368 kts 345°
2026-05-03 23:29 29.55526 -81.47253 28244 ft 369 kts 344°
2026-05-03 23:29 29.58102 -81.47500 28490 ft 373 kts 344°
2026-05-03 23:29 29.60692 -81.47744 28777 ft 374 kts 345°
2026-05-03 23:30 29.63306 -81.47984 29014 ft 378 kts 344°
2026-05-03 23:30 29.65916 -81.48219 29283 ft 380 kts 345°
2026-05-03 23:30 29.68535 -81.48452 29660 ft 378 kts 344°
2026-05-03 23:30 29.71178 -81.48687 29979 ft 378 kts 344°
2026-05-03 23:31 29.73812 -81.48923 30192 ft 380 kts 344°
2026-05-03 23:31 29.76431 -81.49162 30403 ft 383 kts 344°
2026-05-03 23:31 29.79132 -81.49410 30614 ft 386 kts 344°
2026-05-03 23:31 29.81809 -81.49654 30862 ft 387 kts 344°
2026-05-03 23:32 29.84487 -81.49899 31102 ft 388 kts 343°
2026-05-03 23:32 29.87186 -81.50197 31371 ft 385 kts 341°
2026-05-03 23:32 29.89822 -81.50696 31625 ft 379 kts 335°
2026-05-03 23:32 29.92356 -81.51420 31835 ft 376 kts 332°
2026-05-03 23:33 29.94864 -81.52275 31996 ft 376 kts 330°
2026-05-03 23:33 29.97376 -81.53185 32192 ft 378 kts 330°
2026-05-03 23:33 29.99887 -81.54108 32516 ft 376 kts 329°
2026-05-03 23:33 30.02409 -81.55033 32679 ft 380 kts 330°
2026-05-03 23:34 30.04943 -81.55958 32981 ft 379 kts 329°
2026-05-03 23:34 30.07470 -81.56873 33103 ft 382 kts 330°
2026-05-03 23:34 30.12637 -81.58742 33099 ft 385 kts 330°
2026-05-03 23:35 30.17733 -81.60560 33106 ft 385 kts 330°
2026-05-03 23:35 30.22919 -81.62433 33106 ft 395 kts 330°
2026-05-03 23:36 30.28214 -81.64346 33104 ft 404 kts 330°
2026-05-03 23:36 30.33684 -81.66320 33100 ft 415 kts 331°
2026-05-03 23:37 30.39232 -81.68313 33103 ft 418 kts 331°
2026-05-03 23:37 30.44763 -81.70289 33102 ft 413 kts 331°
2026-05-03 23:38 30.50285 -81.72275 33106 ft 415 kts 331°
2026-05-03 23:38 30.55877 -81.74307 33108 ft 426 kts 332°
2026-05-03 23:39 30.61604 -81.76466 33103 ft 438 kts 329°
2026-05-03 23:39 30.67235 -81.79307 33102 ft 442 kts 324°
2026-05-03 23:40 30.72785 -81.82530 33107 ft 444 kts 323°
2026-05-03 23:40 30.78282 -81.85770 33103 ft 444 kts 323°
2026-05-03 23:41 30.83825 -81.89033 33103 ft 453 kts 323°
2026-05-03 23:41 30.89511 -81.92360 33104 ft 455 kts 324°
2026-05-03 23:42 30.95176 -81.95650 33103 ft 454 kts 324°
2026-05-03 23:42 31.00806 -81.98918 33095 ft 452 kts 324°
2026-05-03 23:43 31.06455 -82.02208 33091 ft 453 kts 324°
2026-05-03 23:43 31.12116 -82.05509 33091 ft 452 kts 324°
2026-05-03 23:44 31.17783 -82.08818 33092 ft 454 kts 324°
2026-05-03 23:44 31.23447 -82.12133 33092 ft 454 kts 324°
2026-05-03 23:45 31.29165 -82.15482 33092 ft 453 kts 324°
2026-05-03 23:45 31.34786 -82.18772 33093 ft 451 kts 324°
2026-05-03 23:46 31.40469 -82.22119 33092 ft 455 kts 324°
2026-05-03 23:46 31.46131 -82.25443 33094 ft 451 kts 324°
2026-05-03 23:47 31.51792 -82.28779 33094 ft 454 kts 324°
2026-05-03 23:47 31.57453 -82.32117 33096 ft 456 kts 324°
2026-05-03 23:48 31.63119 -82.35460 33094 ft 454 kts 324°
2026-05-03 23:48 31.68752 -82.38789 33093 ft 456 kts 324°
2026-05-03 23:49 31.74478 -82.42186 33093 ft 461 kts 324°
2026-05-03 23:49 31.80218 -82.45591 33095 ft 461 kts 324°
2026-05-03 23:50 31.85009 -82.48431 33094 ft 462 kts 324°
2026-05-03 23:50 31.91736 -82.52428 33097 ft 461 kts 324°
2026-05-03 23:51 31.97247 -82.56280 33098 ft 452 kts 316°
2026-05-03 23:51 32.02124 -82.60820 33096 ft 444 kts 311°
2026-05-03 23:52 32.06736 -82.65548 33098 ft 441 kts 309°
2026-05-03 23:52 32.11442 -82.70467 33092 ft 452 kts 310°
2026-05-03 23:53 32.16201 -82.75389 33093 ft 450 kts 310°
2026-05-03 23:53 32.20913 -82.80232 33098 ft 449 kts 310°
2026-05-03 23:54 32.25676 -82.85119 33091 ft 450 kts 310°
2026-05-03 23:54 32.30417 -82.89992 33099 ft 452 kts 311°
2026-05-03 23:55 32.35165 -82.94869 33087 ft 450 kts 311°
2026-05-03 23:55 32.39903 -82.99747 33093 ft 452 kts 311°
2026-05-03 23:56 32.44647 -83.04630 33093 ft 451 kts 311°
2026-05-03 23:56 32.49402 -83.09529 33088 ft 453 kts 311°
2026-05-03 23:57 32.54176 -83.14449 33091 ft 451 kts 311°
2026-05-03 23:57 32.58909 -83.19338 33085 ft 450 kts 311°
2026-05-03 23:58 32.63672 -83.24274 33083 ft 451 kts 311°
2026-05-03 23:58 32.68417 -83.29205 33082 ft 452 kts 311°
2026-05-03 23:59 32.73151 -83.34132 33078 ft 451 kts 311°
2026-05-03 23:59 32.77885 -83.39061 33085 ft 450 kts 312°
2026-05-04 00:00 32.82603 -83.43988 33080 ft 451 kts 312°
2026-05-04 00:00 32.87295 -83.48891 33088 ft 453 kts 312°
2026-05-04 00:01 32.92032 -83.53848 33079 ft 453 kts 312°
2026-05-04 00:01 32.96788 -83.58832 33077 ft 453 kts 312°
2026-05-04 00:02 33.01516 -83.63786 33080 ft 453 kts 312°
2026-05-04 00:02 33.06304 -83.68808 33080 ft 453 kts 312°
2026-05-04 00:03 33.11015 -83.73757 33090 ft 453 kts 312°
2026-05-04 00:03 33.13377 -83.76235 33076 ft 434 kts 312°
2026-05-04 00:03 33.15575 -83.78526 33096 ft 406 kts 312°
2026-05-04 00:04 33.17646 -83.80688 33114 ft 386 kts 312°
2026-05-04 00:04 33.19640 -83.82809 33092 ft 389 kts 311°
2026-05-04 00:04 33.23535 -83.87358 33089 ft 389 kts 308°
2026-05-04 00:05 33.27246 -83.91876 32874 ft 373 kts 309°
2026-05-04 00:05 33.29064 -83.94084 32494 ft 369 kts 309°
2026-05-04 00:05 33.30862 -83.96264 32020 ft 368 kts 309°
2026-05-04 00:06 33.32683 -83.98418 31605 ft 366 kts 312°
2026-05-04 00:06 33.34633 -84.00343 31137 ft 369 kts 322°
2026-05-04 00:06 33.36917 -84.01740 30737 ft 372 kts 335°
2026-05-04 00:06 33.39408 -84.02571 30352 ft 373 kts 345°
2026-05-04 00:07 33.41964 -84.02975 29895 ft 373 kts 351°
2026-05-04 00:07 33.44584 -84.03152 29397 ft 372 kts 354°
2026-05-04 00:07 33.47148 -84.03193 28986 ft 369 kts 358°
2026-05-04 00:07 33.49712 -84.02989 28484 ft 368 kts 359°
2026-05-04 00:08 33.52226 -84.02958 27980 ft 362 kts 349°
2026-05-04 00:08 33.54651 -84.03660 27552 ft 350 kts 334°
2026-05-04 00:08 33.56763 -84.04954 27251 ft 339 kts 324°
2026-05-04 00:08 33.58675 -84.06609 26449 ft 334 kts 317°
2026-05-04 00:09 33.60361 -84.08452 25352 ft 328 kts 311°
2026-05-04 00:09 33.61739 -84.10576 24023 ft 322 kts 300°
2026-05-04 00:09 33.62693 -84.12847 23275 ft 296 kts 291°
2026-05-04 00:09 33.63363 -84.15068 22609 ft 275 kts 286°